Terug naar catalogus

STARLINK-6152

ActiefCommunicatieVLEO
NORAD 57121·PAYLOAD·🇺🇸 United States

Gelanceerd Jun 23, 2023 vanaf Cape Canaveral Space Force Station

Loading…

Volgende Passages (komende 24 uur)

TLE

VersSource: CelesTrak SupGP

Epoch: Sep 14, 2026, 13:15 UTC

1 57121C 23090W   26257.55256944  .00059643  00000+0  21598-2 0  2572
2 57121  43.0028 294.6151 0002130 286.4653 319.4691 15.27555409    10

Volg STARLINK-6152 in realtime met AllMySat

Download on the App Store